Showing default

KUIPER-00601, 69285

Orbit data source: Space-Track

KUIPER-00601, 69285 is a payload satellite owned by Kuiper Systems (US) in LEO that was launched on Fri, 29 May 2026 UTC via an ATLAS V 551 launch vehicle from the Air Force Eastern Test Range (AFETR). Payload-class satellites include a variety of spacecraft equipped with specific instruments for various scientific and technological missions. These include communications satellites like Starlink; space stations such as the ISS; scientific satellites like the Hubble; Earth observation satellites from companies like Planet Labs, Umbra, and HawkEye 360; GPS; miniature CubeSats for education and research; and military/defense satellites.

Loading next visibility...
Identifier
69285, 2026-118U
Orbit
LEO
Country
Flag of USUS
Related business
Manufacturer
Kuiper Systems
Mission
Operational spacecraft
Bus & Motor
KUIPER, Unknown motor
Mass
~490 kg wet, ~490 kg dry
Launch date (UTC)
2026-05-29 (3 weeks ago)
Launch vehicle
ATLAS V 551
Launch site
Air Force Eastern Test Range (AFETR)
Object type
Payload
Rocket body
Debris
Shape & HBR
Unknown
Radar Cross Section
Large (>1 m²)

Expand to show TLE details & history
Last TLE update: 21 hours ago

TLE from 21 hours ago
0 KUIPER-00601
1 69285U 26118U   26170.98716845  .00012189  00000-0  33454-3 0  9995
2 69285  51.8707  39.6979 0004917 164.4329 195.6810 15.37649370  4417
Epoch: 2026-06-19T23:41Z
TLE epoch observation values (Epoch: 2026-06-19T23:41:31.354Z)
Latitude
0.00001°
Longitude
136.109°
Altitude
457.059 km
Speed
7.638 km/s
True Right ascension
02h 38m 47s
True Declination
0° 00' 00"
Sunlit
Object was in daylight at epoch
Visualization orbit readout
Latitude
Unknown
Longitude
Unknown
Altitude
Unknown
Speed
Unknown
Apparent Right ascension
Unknown
Apparent Declination
Unknown
Sunlit
N/A
Visualization observer readout
Local Sidereal Time
07:12:18
Azimuth
Unknown
Elevation
Unknown
Doppler factor
Unknown
Orbital elements
Apogee altitude
456.889 km
Perigee altitude
450.171 km
Semi-major axis
6,831.667 km
Eccentricity
0.00049
Inclination
51.8707°
RAAN
39.6979°
Arg. of periapsis
164.4329°
True anomaly
195.66578°
Mean anomaly
195.681°
Eccentric anomaly
195.67339°
Mean motion
3.84373 °/min
Orbital period
93.66 mins
BSTAR
0.00033454
Loading maneuver chart data...
Computing Atmospheric mass density...
Loading historical data...
Loading historical data...
Loading historical data...
Loading historical data...
Loading historical data...
Loading historical data...
Loading historical data...

Documentation

Showing up to 5 results
|